Location: Unspecified
(51.5147°N, 7.4673°E)
Time: 18:03:06
(UTC+01:00)

Vanguard 1 - Pass Details

Date: 19 February 2026
Orbit: 653 x 3818 km, 34.2° (Epoch: 5 March)

Event Time Altitude Azimuth Distance (km) Brightness Sun altitude
Rises 21:17:50 0° 272° (W) 6,474 15.2 -32.0°
Reaches altitude 10° 21:22:38 10° 261° (W) 5,874 14.6 -32.7°
Maximum altitude 21:37:15 28° 213° (SSW) 5,341 13.7 -34.7°
Enters shadow 21:50:12 16° 174° (S) 6,352 13.8 -36.4°
